THORAD DELTA 1 DEB, 8180

Orbit data source: Space-Track

THORAD DELTA 1 DEB, 8180 is space debris in SSO originally from a launch on Fri, 15 Nov 1974 UTC launched from the Air Force Western Test Range (AFWTR). Debris objects in space refer to the collection of defunct objects orbiting the Earth. Examples of debris include non-operational satellites, rocket bodies, and fragments generated from explosions, collisions, or faulty payload assembly.

Loading next visibility...
Identifier
8180, 1974-089AW
Orbit
SSO
Country
Flag of USUS
Related business
Manufacturer
Unknown
Mission
Spacecraft
Bus & Motor
Unknown
Mass
Unknown
Launch date (UTC)
1974-11-15 (51 years ago)
Launch vehicle
Unknown
Launch site
Air Force Western Test Range (AFWTR)
Object type
Payload
Rocket body
Debris
Shape & HBR
Unknown shape, 0.2 m
Radar Cross Section
Medium (>0.1 m² and <1 m²)

Expand to show TLE details & history
Last TLE update: 12 hours ago

TLE from 12 hours ago
0 THORAD DELTA 1 DEB
1 08180U 74089AW  25351.78292639  .00000076  00000-0  83020-3 0  9996
2 08180 100.8979  83.5960 0111611 121.4994  30.5634 12.40120936310659
Epoch: 2025-12-17T18:47Z
TLE epoch observation values (Epoch: 2025-12-17T18:47:24.840Z)
Latitude
26.78354°
Longitude
-99.35585°
Altitude
1,433.556 km
Speed
7.181 km/s
True Right ascension
17h 56m 34s
True Declination
26° 39' 27"
Sunlit
Object was in daylight at epoch
Visualization orbit readout
Latitude
Unknown
Longitude
Unknown
Altitude
Unknown
Speed
Unknown
Apparent Right ascension
Unknown
Apparent Declination
Unknown
Sunlit
N/A
Visualization observer readout
Local Sidereal Time
05:21:39
Azimuth
Unknown
Elevation
Unknown
Doppler factor
Unknown
Orbital elements
Apogee altitude
1,591.571 km
Perigee altitude
1,415.633 km
Semi-major axis
7,881.739 km
Eccentricity
0.01116
Inclination
100.8979°
RAAN
83.596°
Arg. of periapsis
121.4994°
True anomaly
31.22163°
Mean anomaly
30.5634°
Eccentric anomaly
30.89172°
Mean motion
3.10177 °/min
Orbital period
116.06 mins
BSTAR
0.0008302
Loading maneuver chart data...
Computing Atmospheric mass density...
Loading historical data...
Loading historical data...
Loading historical data...
Loading historical data...
Loading historical data...
Loading historical data...
Loading historical data...

Documentation

Showing up to 5 results
|